Regional Weather Roundup
Issued by NWS

Home | Current Version | Previous Version | Text Only | Print | Product List | Glossary Off
Versions: 1 2 3 4 5 6 7 8 9 10 11 12 13 14 15 16 17 18 19 20 21 22 23 24 25 26 27 28 29 30 31 32 33 34 35 36 37 38 39 40 41 42 43 44 45 46 47 48 49 50

013
ASUS43 KMPX 091201
RWRMN
WEATHER ROUNDUP FOR MINNESOTA
NATIONAL WEATHER SERVICE TWIN CITIES/CHANHASSEN MN
600 AM CST FRI DEC 09 2016


NOTE: "FAIR" INDICATES FEW OR NO CLOUDS BELOW 12,000 FEET WITH NO
SIGNIFICANT WEATHER AND/OR OBSTRUCTIONS TO VISIBILITY. N/A MEANS
CURRENT SKY AND/OR WEATHER CONDITIONS ARE NOT AVAILABLE.

MNZ060>063-068>070-091300-
   Twin Cities Metro

CITY           SKY/WX    TMP DP  RH WIND       PRES   REMARKS
TWIN CITIES    CLOUDY    14   9  80 W7        30.54S WCI   4
6HR MIN TEMP:  14; 6HR MAX TEMP:  18;

ST PAUL        CLOUDY    16  11  80 W6        30.55F WCI   7
CRYSTAL        CLOUDY    15   8  73 W6        30.53S WCI   6
BLAINE         CLOUDY    16  12  86 W6        30.52S WCI   7
LAKEVILLE      CLEAR      7   5  92 SW5       30.53F WCI  -2
EDEN PRAIRIE   CLOUDY    14   9  80 SW6       30.53S WCI   5
6HR MIN TEMP:  13; 6HR MAX TEMP:  15;

SOUTH ST PAUL  CLOUDY    16  10  78 W3        30.54S
LAKE ELMO      CLOUDY    16  12  86 W3        30.53S
$$
MNZ001>005-007-008-013>017-022>024-027-028-091300-
   Northwest Minnesota

CITY           SKY/WX    TMP DP  RH WIND       PRES   REMARKS
BEMIDJI        CLOUDY     4   0  82 W6        30.49S FOG     WCI  -7
HALLOCK        CLOUDY     7   1  78 N7        30.56R WCI  -5
ROSEAU         CLOUDY     3  -2  78 W3        30.52S
WARROAD        CLOUDY     3  -2  78 NW9       30.51S WCI -11
THIEF RVR FALL FLURRIES   6   2  83 CALM      30.53S
CROOKSTON      CLOUDY     7   1  78 NW9       30.56S WCI  -7
FOSSTON        FLURRIES   3   0  85 CALM      30.51S
DETROIT LAKES  FLURRIES   7   5  92 W6        30.51S WCI  -3
MOORHEAD       MIX PCPN   7   1  78 W6        30.57S WCI  -3
PARK RAPIDS    CLOUDY     7   0  73 NW8       30.48S WCI  -6
$$
MNZ006-009>011-018-025>026-091300-
   North Central Minnesota

CITY           SKY/WX    TMP DP  RH WIND       PRES   REMARKS
BAUDETTE       CLOUDY     4  -4  69 W18       30.48S WCI -16
FLAG ISLAND    CLOUDY     1  -2  85 W10       30.48F WCI -14
INTL FALLS     CLOUDY     7   1  76 W8        30.45F WCI  -6
6HR MIN TEMP:   7; 6HR MAX TEMP:  11; 6HR PCP: TRACE;

WASKISH        CLOUDY     5   1  85 NW7       30.50R WCI  -7
BIG FORK       CLOUDY     7   1  78 NW3       30.47R
LONGVILLE      CLOUDY     9   3  78 W3        30.48S
GRAND RAPIDS   FLURRIES   6   3  87 NW8       30.48S WCI  -7
CRANE LAKE     CLOUDY     9   5  85 W5        30.45F WCI   0
ORR            FLURRIES   9   3  78 W9        30.41S WCI  -5
COOK           CLOUDY     9   5  85 W6        30.44S WCI  -1
$$
MNZ012-019>021-037-091300-
   Northeast Minnesota

CITY           SKY/WX    TMP DP  RH WIND       PRES   REMARKS
DULUTH         FLURRIES  12   6  77 NW12      30.42S WCI  -2
6HR MIN TEMP:  11; 6HR MAX TEMP:  13; 6HR PCP: TRACE;

ELY            FLURRIES   9   5  85 W6        30.41S WCI  -1
HIBBING        CLOUDY     6   2  83 W6        30.44S WCI  -4
EVELETH        MOCLDY    12   5  72 NW6       30.44S WCI   3
DULUTH HARBOR  CLOUDY    18   9  68 CALM      30.51S
TWO HARBORS    PTCLDY    14   7  73 W3        30.44R
SILVER BAY     CLOUDY    12   9  85 CALM      30.42S
GRAND MARAIS     N/A     15   9  76 CALM      30.45S
G MARAIS ARPRT FLURRIES   7   1  78 MISG      30.33S
$$
MNZ029>031-032-039>041-046>048-054>057-064-091300-
   West Central Minnesota

CITY           SKY/WX    TMP DP  RH WIND       PRES   REMARKS
FERGUS FALLS   CLOUDY     3   0  85 W5        30.60R WCI  -6
WHEATON        CLOUDY     1  -2  85 W9        30.60R WCI -14
MORRIS         CLOUDY     3   0  85 W9        30.55R WCI -11
ALEXANDRIA     CLOUDY     5   2  87 W8        30.51S WCI  -8
ELBOW LAKE     FLURRIES   2  -1  86 NW8       30.55R WCI -11
WADENA         FLURRIES   7   3  85 W6        30.49S WCI  -3
GLENWOOD       FLURRIES   3   1  92 W7        30.52S WCI  -9
APPLETON       CLEAR      0  -6  78 W5        30.58S WCI -10
BENSON         FLURRIES   3   0  85 N6        30.56R WCI  -8
ORTONVILLE     PTCLDY     0  -6  78 CALM      30.57R
MADISON        CLEAR      1  -2  85 W5        30.58S WCI  -8
WILLMAR        FLURRIES   3   0  85 W6        30.55F WCI  -8
$$
MNZ033>034-036-042>043-049>051-058-059-091300-
   Central Minnesota

CITY           SKY/WX    TMP DP  RH WIND       PRES   REMARKS
ST CLOUD       CLEAR      7   4  87 W9        30.53R WCI  -7
6HR MIN TEMP:   7; 6HR MAX TEMP:  13;

PAYNESVILLE    CLEAR      1  -1  90 W3        30.53F
AITKIN         MIX PCPN  12   7  79 CALM      30.47S
PINE RIVER     CLOUDY     9   5  85 W3        30.50F
BRAINERD       PTCLDY     9   4  80 N6        30.49S WCI  -1
STAPLES        CLOUDY     9   3  78 NW8       30.49S WCI  -4
LONG PRAIRIE   FLURRIES   0  -4  85 CALM      30.51S
LITTLE FALLS   FLURRIES   9   3  78 W5        30.52R WCI   0
LITCHFIELD     CLEAR      7   1  78 NW5       30.54S WCI  -2
BUFFALO        CLOUDY    11   7  83 W6        30.54S WCI   2
MAPLE LAKE     CLOUDY    10   7  86 W6        30.54S WCI   0
HUTCHINSON     CLEAR      6   3  88 W7        30.55S WCI  -6
$$
MNZ037-044-045-052-053-091300-
   East Central Minnesota

CITY           SKY/WX    TMP DP  RH WIND       PRES   REMARKS
PRINCETON      CLOUDY    16  10  79 W5        30.51S WCI   9
MORA           FLURRIES  14  10  85 W3        30.51S
CAMBRIDGE      FLURRIES  16   9  73 W3        30.49F
RUSH CITY      CLOUDY    14  10  85 W3        30.51F
MOOSE LAKE     FLURRIES  12   9  85 NW5       30.46S WCI   4
HINCKLEY       CLOUDY    14  12  92 CALM      30.49S
CLOQUET        FLURRIES  12   9  85 NW5       30.44S WCI   4
MCGREGOR       CLOUDY    12   9  85 NW7       30.48R WCI   2
$$
MNZ071>073-080-081-089-090-097-098-091300-
   Southwest Minnesota

CITY           SKY/WX    TMP DP  RH WIND       PRES   REMARKS
MONTEVIDEO     PTCLDY     0  -4  85 NW3       30.59S
GRANITE FALLS  CLEAR      0  -3  85 W5        30.59S WCI -10
CANBY          CLEAR      1  -4  82 CALM      30.58S
MARSHALL       CLEAR     -1  -5  82 W5        30.57F WCI -11
REDWOOD FALLS  CLEAR      2  -3  80 W7        30.57F WCI -11
OLIVIA         CLEAR      1  -4  78 W5        30.55F WCI  -8
PIPESTONE      CLOUDY     1  -2  85 N3        30.49F
WINDOM         CLEAR      1  -2  85 CALM      30.53F
WORTHINGTON    CLEAR      1  -3  83 NW5       30.53S WCI  -9
JACKSON        CLEAR      3   0  85 NW5       30.53F WCI  -6
TRACY          CLEAR      3  -1  83 CALM      30.55F
SLAYTON        CLEAR      0  -3  86 CALM      30.52F
$$
MNZ065>067-074>077-082>085-091>093-091300-
   South Central Minnesota

CITY           SKY/WX    TMP DP  RH WIND       PRES   REMARKS
MANKATO        FLURRIES   5   2  87 W8        30.56F WCI  -8
NEW ULM          N/A      3   0  85 W6        30.56F WCI  -8
ST JAMES       CLEAR      3   1  92 W7        30.58S WCI  -9
FAIRMONT       CLEAR      5   1  83 NW8       30.57R WCI  -8
GLENCOE        CLEAR      8   6  89 W6        30.55R WCI  -2
OWATONNA       LGT SNOW  10   7  85 W8        30.53S WCI  -1
WASECA         FLURRIES  12   9  85 W7        30.55F WCI   2
ALBERT LEA     FLURRIES  14  10  85 NW3       30.52F
$$
MNZ078>079-086>088-094>096-091300-
   Southeast Minnesota

CITY           SKY/WX    TMP DP  RH WIND       PRES   REMARKS
ROCHESTER      CLOUDY    11   9  92 NW10      30.50F WCI  -3
6HR MIN TEMP:  10; 6HR MAX TEMP:  15; 6HR PCP: TRACE;

RED WING       FLURRIES  14  10  85 W5        30.53S WCI   6
STANTON        FLURRIES  12   8  84 W5        30.54S WCI   4
DODGE CENTER   LGT SNOW  10   7  85 NW7       30.51S WCI   0
WINONA           N/A     19  14  79 W7        30.54S WCI  10
AUSTIN         FLURRIES  10   7  85 NW9       30.52S WCI  -2
PRESTON        LGT SNOW  11   8  88 NW10      30.51S WCI  -2
$$
ABBREVIATIONS USED IN REMARKS
   TC - TEMPERATURES IN CELSIUS
  WCI - WIND CHILL INDEX
   HX - HEAT INDEX
  VSB - VISIBILITY
$$




USA.gov is the U.S. government's official web portal to all federal, state and local government web resources and services.